sat.trackr.live / text

‹ back to catalog

STARLINK-35032

NORAD 65382 · 2025-191D

PAYLOAD ACTIVE UNKNOWN

§ Identity

Operator
Country
US
Launch date
2025-08-30
Launch site
AFWTR
Launch vehicle
Mass (kg)
RCS (m²)

Purposes: comms

External: N2YO · Heavens-Above · Gunter

§ Orbital elements

Epoch: 2026-05-25T03:35:59.152416Z

Period
95.64 min
Inclination
97.4517°
Eccentricity
0.0002107
Mean motion
15.05657743 rev/d
Perigee alt
548.0 km
Apogee alt
550.9 km
Semi-major
6,927.6 km
B*
1.9882e-4
RAAN
16.5005°
Arg perigee
84.3967°
Mean anomaly
275.7500°
Rev number
4,177

§ Raw data

STARLINK-350321 65382U 25191D   26145.14999019  .00002812  00000+0  19882-3 0  99952 65382  97.4517  16.5005 0002107  84.3967 275.7500 15.05657743 41771

JSON: /api/v1/satellites/65382 · /tle

For live sub-satellite position, see the globe view (requires WebGL).

§ Visibility from observer

Set your observer location to see the next 7 days of passes ≥ 10°. The values pass through the URL so the page stays shareable.

No JS? Fill the form by hand. The geolocation button needs JavaScript.